Miscellaneous Local Product
Issued by NWS North Platte, NE

Home | Current Version | Previous Version | Text Only | Print | Product List | Glossary On
Versions: 1 2 3 4 5 6 7 8 9 10 11 12 13 14 15 16 17 18 19 20 21 22 23 24 25 26 27 28 29 30 31 32 33 34 35 36 37 38 39 40 41 42 43 44 45 46 47 48 49 50
000
AXUS43 KLBF 300010
MISLBF


WESTERN AND NORTH CENTRAL NEBRASKA HOURLY WEATHER ROUNDUP
NATIONAL WEATHER SERVICE NORTH PLATTE NE
700 PM CDT THU SEP 29 2016

NOTE: "FAIR" INDICATES FEW OR NO CLOUDS BELOW 12,000 FEET WITH NO
SIGNIFICANT WEATHER AND/OR OBSTRUCTIONS TO VISIBILITY.

NOTE: STATIONS NOT REPORTING VARIABLES SUCH AS SKY/WEATHER OR
PRESSURE ARE PROVIDED BY RAWS AND APRS NETWORKS AND ARE NOT UNDER
NATIONAL WEATHER SERVICE QUALITY CONTROL.

...OBSERVATIONS IN AND NEAR THE EASTERN PANHANDLE OF NEBRASKA...

CITY           SKY/WX    TMP DP  RH WIND       PRES   REMARKS
PINE RIDGE     CLEAR     76  42  29 S12G20    30.20F
CHADRON        CLEAR     77  42  28 S18G25    30.18S
ALLIANCE       CLEAR     71  42  35 SE15      30.25S
SIDNEY         CLEAR     73  43  33 SE17      30.26S
$$

...OBSERVATIONS IN NORTHERN NEBRASKA AND FAR SOUTHERN SOUTH DAKOTA...

CITY           SKY/WX    TMP DP  RH WIND       PRES   REMARKS
WINNER         FAIR      67  44  43 SE12      30.29R
VALENTINE      CLEAR     69  38  32 SE14      30.27F
THEDFORD       CLEAR     70  40  34 SE9       30.30S
AINSWORTH      CLEAR     65  43  44 SE9       30.30S
O`NEILL        CLEAR     65  42  43 SE7       30.33S
ORD            CLEAR     65  41  41 SE7       30.32S
BROKEN BOW     CLEAR     64  43  46 SE10      30.31F
VALENTINE NWR    N/A     71  40  32 SE9G16      N/A
BUTTE            N/A     64  47  55 E12         N/A
HALSEY           N/A     70  39  31 SE8         N/A
EWING            N/A     62  47  59 CALM        N/A
$$

...OBSERVATIONS IN SOUTHWEST NEBRASKA AND FAR NORTHEAST COLORADO...

CITY           SKY/WX    TMP DP  RH WIND       PRES   REMARKS
WRAY           FAIR      75  41  29 SE20G26   30.26
HOLYOKE        FAIR      73  41  31 SE15      30.27R
IMPERIAL       CLEAR     69  40  34 SE13      30.28S
OGALLALA       CLEAR     72  40  31 SE13      30.27S
NORTH PLATTE   CLEAR     67  40  37 SE9       30.29S
MCCOOK         CLEAR     66  42  41 SE9       30.30S
LEXINGTON      CLEAR     66  40  38 SE8       30.32S
STAPLETON        N/A     65  42  43 CALM        N/A
GOTHENBURG       N/A     69  39  33 SE7         N/A
CALLAWAY         N/A     71  43  37 S7          N/A
$$

...OBSERVATIONS IN CENTRAL LINCOLN COUNTY AREA...

CITY           SKY/WX    TMP DP  RH WIND       PRES   REMARKS
N.P. AIRPORT   CLEAR     67  40  37 SE9       30.29S
N.P. DOWNTOWN    N/A     68  43  39 CALM        N/A
N.P. SOUTHEAST   N/A     69  42  38 SE3         N/A
N.P. HILLCREST   N/A     68  43  40 SE8         N/A
$$

...SOME OBSERVATIONS FROM AROUND THE REGION...

CITY           SKY/WX    TMP DP  RH WIND       PRES   REMARKS
DENVER         PTCLDY    77  40  26 NW14      30.22R
LARAMIE        CLOUDY    63  42  46 N13G23    30.37R
CHEYENNE       CLEAR     72  36  26 SE9       30.29F
SCOTTSBLUFF    CLEAR     75  45  34 SE17      30.20S
RAPID CITY     CLEAR     75  45  34 S13       30.17S
BISMARCK       CLEAR     65  46  50 SE14      30.25F
PIERRE         CLEAR     67  44  43 SE15      30.24S
SIOUX FALLS    CLEAR     65  48  54 SE7       30.34F
OMAHA          CLEAR     68  48  48 NE6       30.32S
GRAND ISLAND   CLEAR     64  46  52 SE5       30.34R
KANSAS CITY    CLEAR     63  47  55 N6        30.28S
WICHITA        PTCLDY    67  49  52 NE7       30.29F
OKLAHOMA CITY  MOCLDY    69  46  43 N8        30.27R
DALLAS         PTCLDY    73  48  41 N10       30.21S
AMARILLO       CLEAR     72  47  40 SE9       30.32F
DODGE CITY     CLOUDY    67  39  35 SE5       30.31S
HAYS           CLEAR     66  41  39 E8        30.32S
GOODLAND       CLEAR     70  41  34 SE14      30.28F
$$




USA.gov is the U.S. government's official web portal to all federal, state and local government web resources and services.